Time,TemperatureF,DewpointF,PressureIn,WindDirection,WindDirectionDegrees,WindSpeedMPH,WindSpeedGustMPH,Humidity,HourlyPrecipIn,Conditions,Clouds,dailyrainin,SoftwareType,DateUTC
2013-02-09 00:01:00,24.0,23.0,-100.00,WSW,244,7.0,14.0,97,-99.99,,,-99.99,,2013-02-09 08:01:00,
2013-02-09 00:11:00,24.0,23.0,-100.00,WSW,239,7.0,14.0,97,-99.99,,,-99.99,,2013-02-09 08:11:00,
2013-02-09 00:21:00,24.0,23.0,-100.00,SW,234,6.0,14.0,97,-99.99,,,-99.99,,2013-02-09 08:21:00,
2013-02-09 00:31:00,24.0,23.0,-100.00,SW,236,7.0,13.0,97,-99.99,,,-99.99,,2013-02-09 08:31:00,
2013-02-09 00:41:00,24.0,23.0,-100.00,WSW,239,6.0,15.0,97,-99.99,,,-99.99,,2013-02-09 08:41:00,
2013-02-09 00:52:00,24.0,23.0,-100.00,SW,233,7.0,15.0,97,-99.99,,,-99.99,,2013-02-09 08:52:00,
2013-02-09 01:02:00,24.0,23.0,-100.00,SW,235,6.0,13.0,96,-99.99,,,-99.99,,2013-02-09 09:02:00,
2013-02-09 01:11:00,24.0,23.0,-100.00,SW,235,6.0,14.0,96,-99.99,,,-99.99,,2013-02-09 09:11:00,
2013-02-09 01:21:00,23.0,22.0,-100.00,WSW,237,6.0,15.0,96,-99.99,,,-99.99,,2013-02-09 09:21:00,
2013-02-09 01:31:00,24.0,23.0,-100.00,WSW,242,6.0,13.0,97,-99.99,,,-99.99,,2013-02-09 09:31:00,
2013-02-09 01:41:00,24.0,23.0,-100.00,WSW,244,6.0,14.0,97,-99.99,,,-99.99,,2013-02-09 09:41:00,
2013-02-09 01:51:00,24.0,23.0,-100.00,WSW,246,6.0,14.0,97,-99.99,,,-99.99,,2013-02-09 09:51:00,
2013-02-09 02:01:00,24.0,23.0,-100.00,WSW,242,6.0,13.0,97,-99.99,,,-99.99,,2013-02-09 10:01:00,
2013-02-09 02:11:00,24.0,23.0,-100.00,WSW,240,6.0,13.0,96,-99.99,,,-99.99,,2013-02-09 10:11:00,
2013-02-09 02:21:00,24.0,23.0,-100.00,SW,234,6.0,13.0,97,-99.99,,,-99.99,,2013-02-09 10:21:00,
2013-02-09 02:31:00,24.0,23.0,-100.00,WSW,239,5.0,9.0,97,-99.99,,,-99.99,,2013-02-09 10:31:00,
2013-02-09 02:41:00,24.0,23.0,-100.00,WSW,244,6.0,12.0,96,-99.99,,,-99.99,,2013-02-09 10:41:00,
2013-02-09 02:51:00,23.0,22.0,-100.00,WSW,246,5.0,11.0,96,-99.99,,,-99.99,,2013-02-09 10:51:00,
2013-02-09 03:01:00,23.0,22.0,-100.00,WSW,244,5.0,10.0,96,-99.99,,,-99.99,,2013-02-09 11:01:00,
2013-02-09 03:11:00,23.0,22.0,-100.00,WSW,244,5.0,12.0,96,-99.99,,,-99.99,,2013-02-09 11:11:00,
2013-02-09 03:21:00,23.0,22.0,-100.00,WSW,247,5.0,14.0,96,-99.99,,,-99.99,,2013-02-09 11:21:00,
2013-02-09 03:31:00,23.0,22.0,-100.00,WSW,248,5.0,13.0,96,-99.99,,,-99.99,,2013-02-09 11:31:00,
2013-02-09 03:41:00,23.0,22.0,-100.00,WSW,243,5.0,11.0,96,-99.99,,,-99.99,,2013-02-09 11:41:00,
2013-02-09 03:52:00,23.0,22.0,-100.00,WSW,239,4.0,11.0,96,-99.99,,,-99.99,,2013-02-09 11:52:00,
2013-02-09 04:02:00,23.0,22.0,-100.00,WSW,239,4.0,11.0,96,-99.99,,,-99.99,,2013-02-09 12:02:00,
2013-02-09 04:11:00,23.0,22.0,-100.00,WSW,244,5.0,13.0,97,-99.99,,,-99.99,,2013-02-09 12:11:00,
2013-02-09 04:21:00,23.0,22.0,-100.00,WSW,244,4.0,9.0,96,-99.99,,,-99.99,,2013-02-09 12:21:00,
2013-02-09 04:32:00,23.0,22.0,-100.00,WSW,245,4.0,8.0,96,-99.99,,,-99.99,,2013-02-09 12:32:00,
2013-02-09 04:42:00,23.0,22.0,-100.00,WSW,248,4.0,10.0,96,-99.99,,,-99.99,,2013-02-09 12:42:00,
2013-02-09 04:52:00,23.0,22.0,-100.00,WSW,249,4.0,8.0,96,-99.99,,,-99.99,,2013-02-09 12:52:00,
2013-02-09 05:02:00,23.0,22.0,-100.00,WSW,242,4.0,8.0,96,-99.99,,,-99.99,,2013-02-09 13:02:00,
2013-02-09 05:11:00,23.0,22.0,-100.00,WSW,250,4.0,9.0,96,-99.99,,,-99.99,,2013-02-09 13:11:00,
2013-02-09 05:21:00,23.0,22.0,-100.00,WSW,245,4.0,8.0,96,-99.99,,,-99.99,,2013-02-09 13:21:00,
2013-02-09 05:31:00,23.0,22.0,-100.00,WSW,246,4.0,9.0,96,-99.99,,,-99.99,,2013-02-09 13:31:00,
2013-02-09 05:42:00,23.0,22.0,-100.00,WSW,247,4.0,10.0,96,-99.99,,,-99.99,,2013-02-09 13:42:00,
2013-02-09 05:51:00,23.0,22.0,-100.00,WSW,246,4.0,9.0,96,-99.99,,,-99.99,,2013-02-09 13:51:00,
2013-02-09 06:01:00,23.0,22.0,-100.00,WSW,246,4.0,8.0,96,-99.99,,,-99.99,,2013-02-09 14:01:00,
2013-02-09 06:11:00,23.0,22.0,-100.00,WSW,239,4.0,10.0,96,-99.99,,,-99.99,,2013-02-09 14:11:00,
2013-02-09 06:21:00,23.0,22.0,-100.00,SW,234,3.0,8.0,96,-99.99,,,-99.99,,2013-02-09 14:21:00,
2013-02-09 06:31:00,23.0,22.0,-100.00,WSW,237,4.0,12.0,96,-99.99,,,-99.99,,2013-02-09 14:31:00,
2013-02-09 06:41:00,23.0,22.0,-100.00,WSW,238,4.0,10.0,96,-99.99,,,-99.99,,2013-02-09 14:41:00,
2013-02-09 06:52:00,23.0,22.0,-100.00,WSW,237,4.0,7.0,96,-99.99,,,-99.99,,2013-02-09 14:52:00,
2013-02-09 07:01:00,23.0,22.0,-100.00,SW,234,4.0,8.0,96,-99.99,,,-99.99,,2013-02-09 15:01:00,
2013-02-09 07:11:00,23.0,22.0,-100.00,WSW,245,4.0,8.0,96,-99.99,,,-99.99,,2013-02-09 15:11:00,
2013-02-09 07:21:00,23.0,22.0,-100.00,WSW,244,4.0,8.0,96,-99.99,,,-99.99,,2013-02-09 15:21:00,
2013-02-09 07:31:00,23.0,22.0,-100.00,WSW,240,4.0,8.0,96,-99.99,,,-99.99,,2013-02-09 15:31:00,
2013-02-09 07:41:00,23.0,22.0,-100.00,WSW,240,3.0,8.0,96,-99.99,,,-99.99,,2013-02-09 15:41:00,
2013-02-09 07:51:00,23.0,22.0,-100.00,SW,230,4.0,8.0,96,-99.99,,,-99.99,,2013-02-09 15:51:00,
2013-02-09 08:01:00,23.0,22.0,-100.00,WSW,239,4.0,8.0,96,-99.99,,,-99.99,,2013-02-09 16:01:00,
2013-02-09 08:11:00,23.0,22.0,-100.00,WSW,241,4.0,9.0,96,-99.99,,,-99.99,,2013-02-09 16:11:00,
2013-02-09 08:21:00,23.0,22.0,-100.00,WSW,240,4.0,11.0,96,-99.99,,,-99.99,,2013-02-09 16:21:00,
2013-02-09 08:31:00,24.0,23.0,-100.00,WSW,238,4.0,8.0,97,-99.99,,,-99.99,,2013-02-09 16:31:00,
2013-02-09 08:41:00,24.0,23.0,-100.00,SW,233,4.0,7.0,97,-99.99,,,-99.99,,2013-02-09 16:41:00,
2013-02-09 08:51:00,24.0,23.0,-100.00,SW,235,4.0,9.0,97,-99.99,,,-99.99,,2013-02-09 16:51:00,
2013-02-09 09:01:00,24.0,23.0,-100.00,WSW,237,5.0,9.0,97,-99.99,,,-99.99,,2013-02-09 17:01:00,
2013-02-09 09:11:00,24.0,23.0,-100.00,SW,236,4.0,9.0,96,-99.99,,,-99.99,,2013-02-09 17:11:00,
2013-02-09 09:21:00,24.0,23.0,-100.00,WSW,237,4.0,9.0,97,-99.99,,,-99.99,,2013-02-09 17:21:00,
2013-02-09 09:31:00,24.0,23.0,-100.00,WSW,251,4.0,8.0,97,-99.99,,,-99.99,,2013-02-09 17:31:00,
2013-02-09 09:41:00,24.0,23.0,-100.00,WSW,239,5.0,11.0,97,-99.99,,,-99.99,,2013-02-09 17:41:00,
2013-02-09 09:52:00,25.0,24.0,-100.00,SW,231,4.0,10.0,97,-99.99,,,-99.99,,2013-02-09 17:52:00,
2013-02-09 10:01:00,25.0,24.0,-100.00,SW,234,4.0,9.0,97,-99.99,,,-99.99,,2013-02-09 18:01:00,
2013-02-09 10:11:00,25.0,24.0,-100.00,WSW,238,4.0,9.0,97,-99.99,,,-99.99,,2013-02-09 18:11:00,
2013-02-09 10:23:00,25.0,24.0,-100.00,WSW,243,4.0,10.0,97,-99.99,,,-99.99,,2013-02-09 18:23:00,
2013-02-09 10:31:00,25.0,24.0,-100.00,WSW,237,2.0,6.0,97,-99.99,,,-99.99,,2013-02-09 18:31:00,
2013-02-09 10:41:00,26.0,25.0,-100.00,WSW,241,3.0,7.0,97,-99.99,,,-99.99,,2013-02-09 18:41:00,
2013-02-09 10:51:00,26.0,25.0,-100.00,WSW,241,4.0,8.0,97,-99.99,,,-99.99,,2013-02-09 18:51:00,
2013-02-09 11:01:00,26.0,25.0,-100.00,SW,235,4.0,9.0,97,-99.99,,,-99.99,,2013-02-09 19:01:00,
2013-02-09 11:11:00,26.0,25.0,-100.00,SW,236,4.0,9.0,97,-99.99,,,-99.99,,2013-02-09 19:11:00,
2013-02-09 11:22:00,27.0,26.0,-100.00,WSW,243,5.0,11.0,97,-99.99,,,-99.99,,2013-02-09 19:22:00,
2013-02-09 11:31:00,28.0,27.0,-100.00,WSW,246,4.0,9.0,97,-99.99,,,-99.99,,2013-02-09 19:31:00,
2013-02-09 11:41:00,28.0,27.0,-100.00,WSW,241,4.0,9.0,97,-99.99,,,-99.99,,2013-02-09 19:41:00,
2013-02-09 11:52:00,28.0,27.0,-100.00,WSW,245,4.0,10.0,97,-99.99,,,-99.99,,2013-02-09 19:52:00,
2013-02-09 12:01:00,29.0,28.0,-100.00,WSW,238,4.0,8.0,97,-99.99,,,-99.99,,2013-02-09 20:01:00,
2013-02-09 12:11:00,29.0,28.0,-100.00,WSW,244,4.0,10.0,97,-99.99,,,-99.99,,2013-02-09 20:11:00,
2013-02-09 12:21:00,29.0,28.0,-100.00,WSW,243,4.0,10.0,97,-99.99,,,-99.99,,2013-02-09 20:21:00,
2013-02-09 12:31:00,29.0,28.0,-100.00,WSW,244,5.0,12.0,97,-99.99,,,-99.99,,2013-02-09 20:31:00,
2013-02-09 12:41:00,29.0,28.0,-100.00,WSW,241,4.0,9.0,97,-99.99,,,-99.99,,2013-02-09 20:41:00,
2013-02-09 12:52:00,29.0,28.0,-100.00,WSW,237,4.0,9.0,97,-99.99,,,-99.99,,2013-02-09 20:52:00,
2013-02-09 13:01:00,29.0,28.0,-100.00,WSW,243,6.0,11.0,97,-99.99,,,-99.99,,2013-02-09 21:01:00,
2013-02-09 13:11:00,28.0,27.0,-100.00,WSW,242,5.0,11.0,97,-99.99,,,-99.99,,2013-02-09 21:11:00,
2013-02-09 13:21:00,28.0,27.0,-100.00,WSW,243,4.0,10.0,97,-99.99,,,-99.99,,2013-02-09 21:21:00,
2013-02-09 13:31:00,28.0,27.0,-100.00,WSW,243,4.0,10.0,97,-99.99,,,-99.99,,2013-02-09 21:31:00,
2013-02-09 13:41:00,29.0,28.0,-100.00,WSW,244,4.0,8.0,97,-99.99,,,-99.99,,2013-02-09 21:41:00,
2013-02-09 13:52:00,28.0,27.0,-100.00,WSW,238,4.0,10.0,97,-99.99,,,-99.99,,2013-02-09 21:52:00,
2013-02-09 14:01:00,28.0,27.0,-100.00,WSW,238,4.0,10.0,97,-99.99,,,-99.99,,2013-02-09 22:01:00,
2013-02-09 14:11:00,28.0,27.0,-100.00,WSW,239,4.0,9.0,97,-99.99,,,-99.99,,2013-02-09 22:11:00,
2013-02-09 14:21:00,28.0,28.0,-100.00,WSW,238,4.0,8.0,98,-99.99,,,-99.99,,2013-02-09 22:21:00,
2013-02-09 14:31:00,28.0,28.0,-100.00,SW,235,4.0,9.0,98,-99.99,,,-99.99,,2013-02-09 22:31:00,
2013-02-09 14:41:00,29.0,29.0,-100.00,SW,229,5.0,11.0,98,-99.99,,,-99.99,,2013-02-09 22:41:00,
2013-02-09 14:51:00,28.0,28.0,-100.00,SW,234,4.0,9.0,98,-99.99,,,-99.99,,2013-02-09 22:51:00,
2013-02-09 15:01:00,28.0,28.0,-100.00,WSW,242,4.0,10.0,98,-99.99,,,-99.99,,2013-02-09 23:01:00,
2013-02-09 15:11:00,28.0,28.0,-100.00,SW,224,4.0,10.0,98,-99.99,,,-99.99,,2013-02-09 23:11:00,
2013-02-09 15:21:00,28.0,28.0,-100.00,SW,234,4.0,8.0,98,-99.99,,,-99.99,,2013-02-09 23:21:00,
2013-02-09 15:31:00,29.0,29.0,-100.00,SW,227,3.0,8.0,98,-99.99,,,-99.99,,2013-02-09 23:31:00,
2013-02-09 15:41:00,28.0,28.0,-100.00,SW,235,4.0,8.0,98,-99.99,,,-99.99,,2013-02-09 23:41:00,
2013-02-09 15:52:00,28.0,28.0,-100.00,SW,228,4.0,9.0,98,-99.99,,,-99.99,,2013-02-09 23:52:00,
2013-02-09 16:02:00,28.0,28.0,-100.00,SW,231,3.0,7.0,98,-99.99,,,-99.99,,2013-02-10 00:02:00,
2013-02-09 16:11:00,28.0,28.0,-100.00,SW,227,2.0,7.0,98,-99.99,,,-99.99,,2013-02-10 00:11:00,
2013-02-09 16:21:00,28.0,28.0,-100.00,SW,214,3.0,7.0,98,-99.99,,,-99.99,,2013-02-10 00:21:00,
2013-02-09 16:31:00,28.0,28.0,-100.00,SW,225,3.0,6.0,98,-99.99,,,-99.99,,2013-02-10 00:31:00,
2013-02-09 16:41:00,28.0,28.0,-100.00,SW,214,3.0,6.0,98,-99.99,,,-99.99,,2013-02-10 00:41:00,
2013-02-09 16:51:00,28.0,28.0,-100.00,SW,216,2.0,6.0,98,-99.99,,,-99.99,,2013-02-10 00:51:00,
2013-02-09 17:01:00,28.0,28.0,-100.00,SW,218,2.0,6.0,98,-99.99,,,-99.99,,2013-02-10 01:01:00,
2013-02-09 17:11:00,28.0,28.0,-100.00,SW,216,2.0,6.0,98,-99.99,,,-99.99,,2013-02-10 01:11:00,
2013-02-09 17:21:00,28.0,28.0,-100.00,SW,221,3.0,8.0,98,-99.99,,,-99.99,,2013-02-10 01:21:00,
2013-02-09 17:31:00,28.0,28.0,-100.00,SW,217,2.0,6.0,98,-99.99,,,-99.99,,2013-02-10 01:31:00,
2013-02-09 17:41:00,28.0,28.0,-100.00,SW,217,2.0,6.0,98,-99.99,,,-99.99,,2013-02-10 01:41:00,
2013-02-09 17:51:00,27.0,27.0,-100.00,SSW,196,2.0,8.0,98,-99.99,,,-99.99,,2013-02-10 01:51:00,
2013-02-09 18:01:00,27.0,27.0,-100.00,South,177,3.0,6.0,98,-99.99,,,-99.99,,2013-02-10 02:01:00,
2013-02-09 18:11:00,27.0,27.0,-100.00,SSW,196,3.0,10.0,98,-99.99,,,-99.99,,2013-02-10 02:11:00,
2013-02-09 18:22:00,27.0,27.0,-100.00,SSW,200,2.0,6.0,98,-99.99,,,-99.99,,2013-02-10 02:22:00,
2013-02-09 18:31:00,27.0,27.0,-100.00,South,185,4.0,8.0,98,-99.99,,,-99.99,,2013-02-10 02:31:00,
2013-02-09 18:41:00,26.0,25.0,-100.00,South,181,4.0,8.0,97,-99.99,,,-99.99,,2013-02-10 02:41:00,
2013-02-09 18:52:00,26.0,25.0,-100.00,South,187,3.0,9.0,97,-99.99,,,-99.99,,2013-02-10 02:52:00,
2013-02-09 19:01:00,26.0,25.0,-100.00,South,177,2.0,6.0,97,-99.99,,,-99.99,,2013-02-10 03:01:00,
2013-02-09 19:11:00,26.0,25.0,-100.00,South,179,1.0,5.0,97,-99.99,,,-99.99,,2013-02-10 03:11:00,
2013-02-09 19:21:00,26.0,25.0,-100.00,South,191,1.0,3.0,97,-99.99,,,-99.99,,2013-02-10 03:21:00,
2013-02-09 19:31:00,25.0,24.0,-100.00,SE,144,1.0,3.0,97,-99.99,,,-99.99,,2013-02-10 03:31:00,
2013-02-09 19:41:00,25.0,24.0,-100.00,ESE,110,1.0,3.0,97,-99.99,,,-99.99,,2013-02-10 03:41:00,
2013-02-09 19:51:00,25.0,24.0,-100.00,SSE,160,2.0,4.0,97,-99.99,,,-99.99,,2013-02-10 03:51:00,
2013-02-09 20:01:00,25.0,24.0,-100.00,SW,225,2.0,4.0,97,-99.99,,,-99.99,,2013-02-10 04:01:00,
2013-02-09 20:11:00,24.0,23.0,-100.00,WSW,250,3.0,7.0,97,-99.99,,,-99.99,,2013-02-10 04:11:00,
2013-02-09 20:21:00,24.0,23.0,-100.00,WSW,250,4.0,6.0,97,-99.99,,,-99.99,,2013-02-10 04:21:00,
2013-02-09 20:31:00,24.0,23.0,-100.00,WSW,244,3.0,6.0,97,-99.99,,,-99.99,,2013-02-10 04:31:00,
2013-02-09 20:41:00,24.0,23.0,-100.00,WSW,249,3.0,5.0,97,-99.99,,,-99.99,,2013-02-10 04:41:00,
2013-02-09 20:51:00,24.0,23.0,-100.00,WSW,237,3.0,5.0,97,-99.99,,,-99.99,,2013-02-10 04:51:00,
2013-02-09 21:01:00,24.0,23.0,-100.00,SW,232,3.0,5.0,97,-99.99,,,-99.99,,2013-02-10 05:01:00,
2013-02-09 21:11:00,23.0,22.0,-100.00,SW,228,2.0,4.0,96,-99.99,,,-99.99,,2013-02-10 05:11:00,
2013-02-09 21:22:00,23.0,22.0,-100.00,SW,217,1.0,2.0,96,-99.99,,,-99.99,,2013-02-10 05:22:00,
2013-02-09 21:31:00,22.0,21.0,-100.00,SSW,199,1.0,2.0,96,-99.99,,,-99.99,,2013-02-10 05:31:00,
2013-02-09 21:41:00,22.0,21.0,-100.00,SW,214,1.0,1.0,96,-99.99,,,-99.99,,2013-02-10 05:41:00,
2013-02-09 21:52:00,22.0,21.0,-100.00,SSW,213,1.0,3.0,96,-99.99,,,-99.99,,2013-02-10 05:52:00,
2013-02-09 22:01:00,21.0,20.0,-100.00,SW,214,1.0,2.0,96,-99.99,,,-99.99,,2013-02-10 06:01:00,
2013-02-09 22:11:00,21.0,20.0,-100.00,SW,216,1.0,3.0,96,-99.99,,,-99.99,,2013-02-10 06:11:00,
2013-02-09 22:21:00,22.0,21.0,-100.00,SW,220,2.0,4.0,96,-99.99,,,-99.99,,2013-02-10 06:21:00,
2013-02-09 22:32:00,22.0,21.0,-100.00,SW,223,2.0,4.0,96,-99.99,,,-99.99,,2013-02-10 06:32:00,
2013-02-09 22:42:00,22.0,21.0,-100.00,SW,229,2.0,5.0,96,-99.99,,,-99.99,,2013-02-10 06:42:00,
2013-02-09 22:51:00,23.0,22.0,-100.00,SW,233,3.0,6.0,96,-99.99,,,-99.99,,2013-02-10 06:51:00,
2013-02-09 23:01:00,23.0,22.0,-100.00,SW,231,3.0,6.0,97,-99.99,,,-99.99,,2013-02-10 07:01:00,
2013-02-09 23:11:00,23.0,22.0,-100.00,SW,234,3.0,7.0,97,-99.99,,,-99.99,,2013-02-10 07:11:00,
2013-02-09 23:21:00,24.0,23.0,-100.00,WSW,241,3.0,7.0,97,-99.99,,,-99.99,,2013-02-10 07:21:00,
2013-02-09 23:31:00,24.0,23.0,-100.00,SW,230,2.0,6.0,97,-99.99,,,-99.99,,2013-02-10 07:31:00,
2013-02-09 23:41:00,24.0,23.0,-100.00,SW,222,2.0,5.0,97,-99.99,,,-99.99,,2013-02-10 07:41:00,
2013-02-09 23:51:00,24.0,23.0,-100.00,SW,220,2.0,4.0,97,-99.99,,,-99.99,,2013-02-10 07:51:00,